DW5274 Weather Reports


Display with metric or nautical units.
time (UTC)temp
F
wind
direction
speed
MPH
gust
MPH
rain 1hr
in
rain 24hr
in
rain mn
in
humidity
%
barometer
mb
20260503004600 80 78 0.0 0.0 0.00 0.00 0.00 15 1009.3
20260503003058 81 86 0.0 0.0 0.00 0.00 0.00 17 1009.3
20260503001537 80 88 0.0 0.0 0.00 0.00 0.00 18 1009.4
20260503000052 81 89 0.0 0.0 0.00 0.00 0.00 16 1009.6
20260502234517 80 87 0.0 0.0 0.00 0.00 0.00 19 1009.6
20260502233015 80 71 0.0 0.0 0.00 0.00 0.00 15 1009.7
20260502231503 81 71 0.0 0.0 0.00 0.00 0.00 13 1009.8
20260502230101 82 71 0.0 0.0 0.00 0.00 0.00 16 1010.0
20260502224558 81 76 0.0 0.0 0.00 0.00 0.00 15 1010.2
20260502223057 80 79 0.0 0.0 0.00 0.00 0.00 17 1010.4
20260502221611 81 183 0.0 0.0 0.00 0.00 0.00 15 1010.6
20260502220101 81 180 0.0 0.0 0.00 0.00 0.00 17 1010.8
20260502214552 80 183 0.0 0.0 0.00 0.00 0.00 18 1011.0
20260502213050 81 183 3.0 0.0 0.00 0.00 0.00 19 1011.2
20260502211535 82 211 0.0 0.0 0.00 0.00 0.00 17 1011.4
20260502210027 82 158 0.0 0.0 0.00 0.00 0.00 15 1011.7
20260502204506 81 169 2.0 0.0 0.00 0.00 0.00 22 1011.8
20260502203004 80 162 0.0 0.0 0.00 0.00 0.00 18 1011.9
20260502201548 80 60 0.0 0.0 0.00 0.00 0.00 25 1012.1
20260502200053 78 105 0.0 0.0 0.00 0.00 0.00 26 1012.2
20260502194525 76 105 0.0 0.0 0.00 0.00 0.00 27 1012.5
20260502193022 75 117 0.0 0.0 0.00 0.00 0.00 33 1012.9
20260502191520 74 117 0.0 0.0 0.00 0.00 0.00 30 1013.2
20260502190025 74 178 0.0 0.0 0.00 0.00 0.00 32 1013.4
20260502184516 72 178 0.0 0.0 0.00 0.00 0.00 34 1013.7
20260502183015 72 178 0.0 0.0 0.00 0.00 0.00 34 1013.9
20260502181514 72 178 0.0 0.0 0.00 0.00 0.00 33 1014.1
20260502163021 62 209 0.0 0.0 0.00 0.00 0.00 41 1015.0
20260502161609 61 212 0.0 0.0 0.00 0.00 0.00 43 1015.1
20260502151548 55 202 0.0 0.0 0.00 0.00 0.00 53 1014.9
20260502140116 50 196 0.0 0.0 0.00 0.00 0.00 51 1014.8
20260502123049 51 140 0.0 0.0 0.00 0.00 0.00 54 1014.4
20260502121537 51 140 0.0 0.0 0.00 0.00 0.00 53 1014.3
20260502114513 52 140 3.0 0.0 0.00 0.00 0.00 53 1014.0
20260502113013 51 143 3.0 0.0 0.00 0.00 0.00 54 1014.2
20260502111555 51 140 0.0 0.0 0.00 0.00 0.00 55 1014.2
20260502104536 51 142 0.0 0.0 0.00 0.00 0.00 56 1014.3
20260502103036 51 142 0.0 0.0 0.00 0.00 0.00 55 1014.3
20260502101519 51 144 0.0 0.0 0.00 0.00 0.00 53 1014.3
20260502090109 51 144 0.0 0.0 0.00 0.00 0.00 54 1014.4
20260502070038 53 148 0.0 0.0 0.00 0.00 0.00 53 1014.5
20260502064520 54 148 0.0 0.0 0.00 0.00 0.00 49 1014.7
20260502063008 54 148 0.0 0.0 0.00 0.00 0.00 48 1014.6
20260502061503 55 148 0.0 0.0 0.00 0.00 0.00 47 1014.6
20260502060100 56 148 0.0 0.0 0.00 0.00 0.00 46 1014.6
20260502054603 57 148 0.0 0.0 0.00 0.00 0.00 44 1014.5
20260502053055 57 148 0.0 0.0 0.00 0.00 0.00 43 1014.5
20260502051554 58 148 0.0 0.0 0.00 0.00 0.00 42 1014.5
20260502050049 59 148 0.0 0.0 0.00 0.00 0.00 41 1014.5
20260502044547 60 148 0.0 0.0 0.00 0.00 0.00 41 1014.5
20260502043024 62 148 0.0 0.0 0.00 0.00 0.00 40 1014.5
20260502041526 63 148 0.0 0.0 0.00 0.00 0.00 37 1014.5
20260502040105 65 148 0.0 0.0 0.00 0.00 0.00 35 1014.5
20260502034557 66 148 0.0 0.0 0.00 0.00 0.00 33 1014.3
20260502033041 67 148 0.0 0.0 0.00 0.00 0.00 30 1014.3
20260502031538 67 148 0.0 0.0 0.00 0.00 0.00 28 1014.2
20260502030036 69 148 0.0 0.0 0.00 0.00 0.00 25 1014.1
20260502024530 71 148 0.0 0.0 0.00 0.00 0.00 22 1014.0
20260502023026 72 148 0.0 0.0 0.00 0.00 0.00 20 1013.9
20260502021523 73 148 0.0 0.0 0.00 0.00 0.00 20 1013.9
20260502020021 74 148 0.0 0.0 0.00 0.00 0.00 20 1013.9
20260502014519 74 147 0.0 0.0 0.00 0.00 0.00 22 1014.0
20260502013006 75 150 0.0 0.0 0.00 0.00 0.00 22 1014.1
20260502011506 75 150 0.0 0.0 0.00 0.00 0.00 22 1014.3
20260502010008 76 150 0.0 0.0 0.00 0.00 0.00 19 1014.4